Вернуться в каталог

STARLINK-11398

АктивенСвязьVLEO
NORAD 61882·PAYLOAD·🇺🇸 United States

Запущен Nov 9, 2024 с Vandenberg Space Force Base

Loading…

Ближайшие Пролёты (ближайшие 24 часа)

TLE

СвежийSource: CelesTrak SupGP

Эпоха: Sep 14, 2026, 21:25 UTC

1 61882C 24204J   26257.89284722 -.00053065  00000+0 -43697-3 0  2570
2 61882  53.1565 143.5035 0001062  92.3369 205.4695 15.69743916    17

Отслеживайте STARLINK-11398 в реальном времени с AllMySat

Download on the App Store